TimeCDT,TemperatureF,Dew PointF,Humidity,Sea Level PressureIn,VisibilityMPH,Wind Direction,Wind SpeedMPH,Gust SpeedMPH,PrecipitationIn,Events,Conditions,WindDirDegrees,DateUTC
12:05 AM,39.2,37.4,93,29.76,2.0,Calm,Calm,-,0.00,Rain,Light Rain,0,2013-03-10 06:05:00
12:13 AM,39.2,37.4,93,29.75,3.0,Calm,Calm,-,0.01,Rain,Light Rain,0,2013-03-10 06:13:00
12:17 AM,39.2,37.4,93,29.75,2.5,Calm,Calm,-,0.01,Rain,Light Rain,0,2013-03-10 06:17:00
12:29 AM,37.4,37.4,100,29.76,1.0,Calm,Calm,-,0.01,,Overcast,0,2013-03-10 06:29:00
12:37 AM,37.4,35.6,93,29.75,0.5,NE,3.5,-,0.01,Fog,Fog,50,2013-03-10 06:37:00
12:45 AM,39.2,37.4,93,29.75,0.8,ENE,3.5,-,0.01,,Overcast,60,2013-03-10 06:45:00
12:53 AM,39.0,37.9,96,29.76,1.0,ENE,3.5,-,0.01,Rain,Light Rain,70,2013-03-10 06:53:00
1:00 AM,39.2,37.4,93,29.74,1.2,ENE,3.5,-,0.00,Rain,Light Rain,60,2013-03-10 07:00:00
1:23 AM,37.4,37.4,100,29.74,0.8,NE,4.6,-,0.00,,Overcast,40,2013-03-10 07:23:00
1:34 AM,37.4,37.4,100,29.74,1.0,NE,3.5,-,0.00,Rain,Light Rain,40,2013-03-10 07:34:00
1:45 AM,37.4,37.4,100,29.74,1.2,Calm,Calm,-,0.00,,Overcast,0,2013-03-10 07:45:00
1:53 AM,37.9,37.9,100,29.76,1.0,Calm,Calm,-,0.00,Rain,Light Rain,0,2013-03-10 07:53:00
3:07 AM,37.4,37.4,100,29.73,0.5,NNE,4.6,-,0.01,Fog-Rain,Light Rain,20,2013-03-10 08:07:00
3:25 AM,37.4,37.4,100,29.72,0.5,NE,3.5,-,0.02,Fog-Rain,Light Rain,40,2013-03-10 08:25:00
3:42 AM,37.4,37.4,100,29.72,0.5,Calm,Calm,-,0.06,Fog-Rain,Rain,0,2013-03-10 08:42:00
3:53 AM,37.9,37.0,97,29.74,0.5,Calm,Calm,-,0.07,Fog-Rain,Light Rain,0,2013-03-10 08:53:00
4:35 AM,37.4,37.4,100,29.72,0.5,Calm,Calm,-,0.00,Fog,Fog,0,2013-03-10 09:35:00
4:53 AM,37.0,36.0,96,29.75,0.2,Calm,Calm,-,0.00,Fog,Fog,0,2013-03-10 09:53:00
5:08 AM,37.4,37.4,100,29.72,0.5,Calm,Calm,-,0.01,Fog-Rain,Rain,0,2013-03-10 10:08:00
5:29 AM,39.2,37.4,93,29.64,1.2,ENE,8.1,-,0.02,Rain,Light Rain,60,2013-03-10 10:29:00
5:37 AM,39.2,37.4,93,29.65,3.0,Variable,5.8,19.6,0.02,,Overcast,0,2013-03-10 10:37:00
5:53 AM,37.9,37.9,100,29.70,3.0,North,4.6,-,0.02,,Overcast,360,2013-03-10 10:53:00
6:07 AM,37.4,37.4,100,29.69,2.5,ESE,3.5,-,N/A,,Overcast,110,2013-03-10 11:07:00
6:20 AM,39.2,37.4,93,29.70,1.8,Calm,Calm,-,N/A,,Overcast,0,2013-03-10 11:20:00
6:37 AM,37.4,37.4,100,29.71,1.2,Calm,Calm,-,N/A,,Overcast,0,2013-03-10 11:37:00
6:42 AM,37.4,37.4,100,29.71,0.8,Calm,Calm,-,N/A,,Overcast,0,2013-03-10 11:42:00
7:12 AM,37.4,35.6,93,29.71,0.2,ESE,3.5,-,N/A,Fog,Fog,110,2013-03-10 12:12:00
7:53 AM,37.0,36.0,96,29.77,0.2,Calm,Calm,-,0.00,Fog-Rain,Light Rain,0,2013-03-10 12:53:00
8:53 AM,37.0,37.0,100,29.80,0.2,Calm,Calm,-,0.03,Fog-Rain,Light Rain,0,2013-03-10 13:53:00
9:27 AM,37.4,37.4,100,29.76,1.0,ENE,5.8,-,0.00,,Overcast,60,2013-03-10 14:27:00
9:34 AM,37.4,37.4,100,29.76,1.2,NE,4.6,-,0.00,,Overcast,50,2013-03-10 14:34:00
9:50 AM,39.2,37.4,93,29.76,2.5,NE,4.6,-,0.00,,Overcast,50,2013-03-10 14:50:00
9:53 AM,39.0,37.9,96,29.78,2.5,NE,4.6,-,0.00,,Overcast,50,2013-03-10 14:53:00
10:03 AM,39.2,37.4,93,29.76,3.0,ENE,4.6,-,N/A,,Overcast,70,2013-03-10 15:03:00
10:53 AM,39.0,37.9,96,29.81,1.8,Calm,Calm,-,N/A,,Overcast,0,2013-03-10 15:53:00
11:09 AM,39.2,37.4,93,29.79,3.0,Calm,Calm,-,N/A,,Overcast,0,2013-03-10 16:09:00
11:46 AM,39.2,37.4,93,29.78,1.8,NNE,3.5,-,N/A,,Overcast,30,2013-03-10 16:46:00
11:53 AM,39.0,37.9,96,29.79,2.0,NNE,4.6,-,N/A,,Overcast,30,2013-03-10 16:53:00
12:01 PM,39.2,37.4,93,29.78,8.0,NE,3.5,-,N/A,,Overcast,40,2013-03-10 17:01:00
12:53 PM,39.9,37.0,89,29.82,3.0,NE,4.6,-,0.00,,Overcast,40,2013-03-10 17:53:00
1:53 PM,39.0,37.0,93,29.75,9.0,NE,5.8,-,N/A,,Overcast,50,2013-03-10 18:53:00
2:01 PM,39.2,37.4,93,29.73,10.0,ENE,6.9,-,N/A,,Overcast,60,2013-03-10 19:01:00
2:53 PM,39.0,36.0,89,29.76,10.0,ENE,6.9,-,N/A,,Overcast,60,2013-03-10 19:53:00
3:53 PM,39.0,36.0,89,29.74,6.0,NNE,9.2,-,0.01,Rain,Light Rain,30,2013-03-10 20:53:00
4:53 PM,37.9,36.0,93,29.74,5.0,NE,6.9,-,0.04,Rain,Light Rain,50,2013-03-10 21:53:00
5:53 PM,37.9,35.1,89,29.70,7.0,NE,8.1,-,0.04,Rain,Light Rain,50,2013-03-10 22:53:00
6:53 PM,37.9,36.0,93,29.68,8.0,NE,8.1,16.1,0.02,Rain,Light Rain,50,2013-03-10 23:53:00
7:53 PM,37.0,-9999,N/A,29.69,4.0,NE,8.1,-,0.04,Rain,Light Rain,40,2013-03-11 00:53:00
8:31 PM,37.4,-9999,N/A,29.68,2.0,NE,4.6,-,0.05,Rain,Rain,40,2013-03-11 01:31:00
8:53 PM,36.0,-9999,N/A,29.70,3.0,NNE,4.6,-,0.11,Rain,Rain,20,2013-03-11 01:53:00
9:31 PM,35.6,-9999,N/A,29.68,6.0,North,6.9,-,0.05,Rain,Rain,10,2013-03-11 02:31:00
9:53 PM,36.0,-9999,N/A,29.70,7.0,North,6.9,-,0.05,Rain,Light Rain,360,2013-03-11 02:53:00
10:21 PM,35.6,-9999,N/A,29.67,4.0,NNE,8.1,-,0.02,Rain,Light Rain,20,2013-03-11 03:21:00
10:53 PM,35.1,-9999,N/A,29.70,5.0,NE,6.9,16.1,0.02,,Haze,40,2013-03-11 03:53:00
11:10 PM,35.6,33.8,93,29.67,9.0,NNE,5.8,-,N/A,,Overcast,30,2013-03-11 04:10:00
11:53 PM,35.1,33.1,92,29.69,5.0,NNE,8.1,-,0.00,,Overcast,30,2013-03-11 04:53:00
12:53 AM,35.1,33.1,92,29.69,10.0,NNE,3.5,-,0.00,,Overcast,30,2013-03-11 05:53:00